Time,TemperatureF,DewpointF,PressureIn,WindDirection,WindDirectionDegrees,WindSpeedMPH,WindSpeedGustMPH,Humidity,HourlyPrecipIn,Conditions,Clouds,dailyrainin,SoftwareType,DateUTC
2013-01-23 00:03:00,42.8,20.8,29.91,SE,133,4.9,6.3,41,0.00,,,0.00,VWS V13.01,2013-01-23 08:03:00,
2013-01-23 00:08:00,42.8,20.2,29.91,SE,133,3.1,5.4,40,0.00,,,0.00,VWS V13.01,2013-01-23 08:08:00,
2013-01-23 00:13:00,42.8,20.2,29.91,SE,133,5.8,5.8,40,0.00,,,0.00,VWS V13.01,2013-01-23 08:13:00,
2013-01-23 00:18:00,42.6,20.6,29.91,SE,133,7.2,7.2,41,0.00,,,0.00,VWS V13.01,2013-01-23 08:18:00,
2013-01-23 00:23:00,42.6,20.6,29.91,SE,136,6.3,6.3,41,0.00,,,0.00,VWS V13.01,2013-01-23 08:23:00,
2013-01-23 00:28:00,42.4,20.4,29.91,SSE,149,6.3,6.3,41,0.00,,,0.00,VWS V13.01,2013-01-23 08:28:00,
2013-01-23 00:33:00,42.4,20.4,29.91,SSE,149,4.0,5.8,41,0.00,,,0.00,VWS V13.01,2013-01-23 08:33:00,
2013-01-23 00:38:00,42.4,20.4,29.91,SSE,149,4.0,5.4,41,0.00,,,0.00,VWS V13.01,2013-01-23 08:38:00,
2013-01-23 00:43:00,42.4,20.4,29.91,SSE,149,4.0,5.8,41,0.00,,,0.00,VWS V13.01,2013-01-23 08:43:00,
2013-01-23 00:48:00,42.4,20.4,29.91,SSE,149,3.6,7.2,41,0.00,,,0.00,VWS V13.01,2013-01-23 08:48:00,
2013-01-23 00:53:00,42.4,20.4,29.91,SSE,149,5.8,6.3,41,0.00,,,0.00,VWS V13.01,2013-01-23 08:53:00,
2013-01-23 00:58:00,42.4,20.4,29.91,SSE,149,5.4,5.4,41,0.00,,,0.00,VWS V13.01,2013-01-23 08:58:00,
2013-01-23 01:03:00,42.4,20.4,29.91,SSE,149,2.7,2.7,41,0.00,,,0.00,VWS V13.01,2013-01-23 09:03:00,
2013-01-23 01:08:00,42.4,20.4,29.91,SSE,149,3.6,4.0,41,0.00,,,0.00,VWS V13.01,2013-01-23 09:08:00,
2013-01-23 01:13:00,42.4,20.4,29.91,SSE,149,4.5,4.9,41,0.00,,,0.00,VWS V13.01,2013-01-23 09:13:00,
2013-01-23 01:18:00,42.3,20.3,29.91,SSE,149,5.4,5.8,41,0.00,,,0.00,VWS V13.01,2013-01-23 09:18:00,
2013-01-23 01:23:00,42.1,20.1,29.91,SSE,149,4.0,4.9,41,0.00,,,0.00,VWS V13.01,2013-01-23 09:23:00,
2013-01-23 01:28:00,42.1,20.7,29.91,SSE,149,4.0,7.6,42,0.00,,,0.00,VWS V13.01,2013-01-23 09:28:00,
2013-01-23 01:33:00,42.1,20.7,29.91,SSE,149,4.0,5.8,42,0.00,,,0.00,VWS V13.01,2013-01-23 09:33:00,
2013-01-23 01:38:00,41.9,20.5,29.91,SSE,149,5.8,5.8,42,0.00,,,0.00,VWS V13.01,2013-01-23 09:38:00,
2013-01-23 01:43:00,41.9,20.5,29.91,SSE,149,6.3,6.3,42,0.00,,,0.00,VWS V13.01,2013-01-23 09:43:00,
2013-01-23 01:48:00,41.9,20.5,29.91,SSE,149,4.0,8.1,42,0.00,,,0.00,VWS V13.01,2013-01-23 09:48:00,
2013-01-23 01:53:00,41.9,20.5,29.91,SSE,150,8.1,8.1,42,0.00,,,0.00,VWS V13.01,2013-01-23 09:53:00,
2013-01-23 01:58:00,41.9,20.5,29.91,SSE,152,6.3,6.3,42,0.00,,,0.00,VWS V13.01,2013-01-23 09:58:00,
2013-01-23 02:03:00,41.9,20.5,29.91,SSE,152,2.7,3.6,42,0.00,,,0.00,VWS V13.01,2013-01-23 10:03:00,
2013-01-23 02:08:00,41.9,20.5,29.88,SSE,152,4.0,5.4,42,0.00,,,0.00,VWS V13.01,2013-01-23 10:08:00,
2013-01-23 02:13:00,41.9,20.5,29.88,SSE,152,5.8,5.8,42,0.00,,,0.00,VWS V13.01,2013-01-23 10:13:00,
2013-01-23 02:18:00,41.9,20.5,29.88,SSE,152,5.4,5.4,42,0.00,,,0.00,VWS V13.01,2013-01-23 10:18:00,
2013-01-23 02:23:00,41.7,20.3,29.91,SSE,152,8.1,8.1,42,0.00,,,0.00,VWS V13.01,2013-01-23 10:23:00,
2013-01-23 02:28:00,41.7,20.3,29.91,SSE,152,2.7,5.4,42,0.00,,,0.00,VWS V13.01,2013-01-23 10:28:00,
2013-01-23 02:33:00,41.7,20.3,29.91,SSE,152,5.8,5.8,42,0.00,,,0.00,VWS V13.01,2013-01-23 10:33:00,
2013-01-23 02:38:00,41.7,19.8,29.88,SSE,152,5.8,5.8,41,0.00,,,0.00,VWS V13.01,2013-01-23 10:38:00,
2013-01-23 02:43:00,41.7,19.8,29.88,SSE,153,6.3,8.1,41,0.00,,,0.00,VWS V13.01,2013-01-23 10:43:00,
2013-01-23 02:48:00,41.7,20.3,29.88,SSE,152,3.1,5.8,42,0.00,,,0.00,VWS V13.01,2013-01-23 10:48:00,
2013-01-23 02:53:00,41.7,20.3,29.88,SSE,152,4.9,6.3,42,0.00,,,0.00,VWS V13.01,2013-01-23 10:53:00,
2013-01-23 02:58:00,41.7,20.3,29.88,SSE,152,3.6,6.3,42,0.00,,,0.00,VWS V13.01,2013-01-23 10:58:00,
2013-01-23 03:03:00,41.7,20.3,29.88,SSE,152,4.9,6.3,42,0.00,,,0.00,VWS V13.01,2013-01-23 11:03:00,
2013-01-23 03:08:00,41.5,20.2,29.88,SSE,152,5.4,5.4,42,0.00,,,0.00,VWS V13.01,2013-01-23 11:08:00,
2013-01-23 03:13:00,41.5,20.2,29.88,SSE,152,4.0,6.3,42,0.00,,,0.00,VWS V13.01,2013-01-23 11:13:00,
2013-01-23 03:18:00,41.5,20.2,29.88,SSE,152,5.4,8.1,42,0.00,,,0.00,VWS V13.01,2013-01-23 11:18:00,
2013-01-23 03:23:00,41.5,20.2,29.88,SSE,152,5.8,5.8,42,0.00,,,0.00,VWS V13.01,2013-01-23 11:23:00,
2013-01-23 03:28:00,41.5,20.2,29.88,SSE,152,6.7,9.2,42,0.00,,,0.00,VWS V13.01,2013-01-23 11:28:00,
2013-01-23 03:34:00,41.5,20.2,29.88,SSE,152,5.4,7.2,42,0.00,,,0.00,VWS V13.01,2013-01-23 11:34:00,
2013-01-23 03:39:00,41.5,19.6,29.88,SSE,154,8.1,8.1,41,0.00,,,0.00,VWS V13.01,2013-01-23 11:39:00,
2013-01-23 03:44:00,41.5,19.6,29.88,SSE,155,4.9,5.8,41,0.00,,,0.00,VWS V13.01,2013-01-23 11:44:00,
2013-01-23 03:49:00,41.5,19.6,29.88,SSE,155,3.6,5.4,41,0.00,,,0.00,VWS V13.01,2013-01-23 11:49:00,
2013-01-23 03:54:00,41.7,19.8,29.88,SSE,156,6.7,6.7,41,0.00,,,0.00,VWS V13.01,2013-01-23 11:54:00,
2013-01-23 03:59:00,41.9,19.9,29.88,SSE,155,3.6,4.9,41,0.00,,,0.00,VWS V13.01,2013-01-23 11:59:00,
2013-01-23 04:04:00,41.9,19.9,29.88,SSE,155,4.0,5.8,41,0.00,,,0.00,VWS V13.01,2013-01-23 12:04:00,
2013-01-23 04:09:00,42.1,19.5,29.88,SSE,156,3.1,4.9,40,0.00,,,0.00,VWS V13.01,2013-01-23 12:09:00,
2013-01-23 04:14:00,42.3,19.7,29.88,SSE,155,2.7,5.4,40,0.00,,,0.00,VWS V13.01,2013-01-23 12:14:00,
2013-01-23 04:19:00,42.6,20.0,29.88,SSE,155,4.0,4.0,40,0.00,,,0.00,VWS V13.01,2013-01-23 12:19:00,
2013-01-23 04:24:00,42.8,19.6,29.88,SSE,155,4.9,4.9,39,0.00,,,0.00,VWS V13.01,2013-01-23 12:24:00,
2013-01-23 04:29:00,42.8,19.6,29.88,SSE,155,3.6,3.6,39,0.00,,,0.00,VWS V13.01,2013-01-23 12:29:00,
2013-01-23 04:34:00,42.6,20.0,29.88,SSE,155,3.6,4.0,40,0.00,,,0.00,VWS V13.01,2013-01-23 12:34:00,
2013-01-23 04:39:00,42.8,19.6,29.88,SSE,156,5.8,7.6,39,0.00,,,0.00,VWS V13.01,2013-01-23 12:39:00,
2013-01-23 04:44:00,43.0,19.7,29.88,SSE,155,4.0,4.0,39,0.00,,,0.00,VWS V13.01,2013-01-23 12:44:00,
2013-01-23 04:49:00,43.0,19.7,29.88,SSE,155,4.0,6.3,39,0.00,,,0.00,VWS V13.01,2013-01-23 12:49:00,
2013-01-23 04:54:00,42.8,19.6,29.88,SSE,155,6.3,6.3,39,0.00,,,0.00,VWS V13.01,2013-01-23 12:54:00,
2013-01-23 04:59:00,42.8,19.6,29.88,SSE,155,5.4,6.3,39,0.00,,,0.00,VWS V13.01,2013-01-23 12:59:00,
2013-01-23 05:04:00,42.8,19.6,29.88,SSE,155,3.6,5.8,39,0.00,,,0.00,VWS V13.01,2013-01-23 13:04:00,
2013-01-23 05:09:00,42.8,19.6,29.88,SSE,155,4.0,5.8,39,0.00,,,0.00,VWS V13.01,2013-01-23 13:09:00,
2013-01-23 05:14:00,42.8,19.6,29.88,SSE,154,2.7,4.0,39,0.00,,,0.00,VWS V13.01,2013-01-23 13:14:00,
2013-01-23 05:18:00,42.8,19.6,29.88,SSE,154,4.0,4.0,39,0.00,,,0.00,VWS V13.01,2013-01-23 13:18:00,
2013-01-23 05:24:00,42.8,19.6,29.88,SSE,154,4.0,4.0,39,0.00,,,0.00,VWS V13.01,2013-01-23 13:24:00,
2013-01-23 05:28:00,43.0,19.7,29.88,SE,125,8.1,8.3,39,0.00,,,0.00,VWS V13.01,2013-01-23 13:28:00,
2013-01-23 05:33:00,43.2,19.9,29.88,SE,126,6.3,8.7,39,0.00,,,0.00,VWS V13.01,2013-01-23 13:33:00,
2013-01-23 05:38:00,43.2,19.9,29.88,SE,126,6.3,7.6,39,0.00,,,0.00,VWS V13.01,2013-01-23 13:38:00,
2013-01-23 05:43:00,43.2,19.9,29.88,SE,126,3.6,5.8,39,0.00,,,0.00,VWS V13.01,2013-01-23 13:43:00,
2013-01-23 05:48:00,43.0,19.7,29.88,SSE,166,3.6,4.0,39,0.00,,,0.00,VWS V13.01,2013-01-23 13:48:00,
2013-01-23 05:53:00,42.8,19.6,29.88,SSE,166,5.4,5.4,39,0.00,,,0.00,VWS V13.01,2013-01-23 13:53:00,
2013-01-23 05:58:00,42.8,19.6,29.88,SSE,166,8.1,8.1,39,0.00,,,0.00,VWS V13.01,2013-01-23 13:58:00,
2013-01-23 06:03:00,42.6,19.4,29.88,SSE,165,3.1,4.0,39,0.00,,,0.00,VWS V13.01,2013-01-23 14:03:00,
2013-01-23 06:08:00,42.4,19.2,29.88,SSE,166,4.9,4.9,39,0.00,,,0.00,VWS V13.01,2013-01-23 14:08:00,
2013-01-23 06:13:00,42.4,19.2,29.88,SSE,166,3.6,4.9,39,0.00,,,0.00,VWS V13.01,2013-01-23 14:13:00,
2013-01-23 06:18:00,42.4,19.2,29.88,SSE,166,3.1,5.4,39,0.00,,,0.00,VWS V13.01,2013-01-23 14:18:00,
2013-01-23 06:23:00,42.6,19.4,29.88,SSE,166,4.0,5.8,39,0.00,,,0.00,VWS V13.01,2013-01-23 14:23:00,
2013-01-23 06:28:00,42.4,19.2,29.88,SSE,166,3.1,3.6,39,0.00,,,0.00,VWS V13.01,2013-01-23 14:28:00,
2013-01-23 06:33:00,42.4,19.2,29.88,SSE,166,3.1,4.9,39,0.00,,,0.00,VWS V13.01,2013-01-23 14:33:00,
2013-01-23 06:38:00,42.6,19.4,29.88,SSE,166,3.1,4.9,39,0.00,,,0.00,VWS V13.01,2013-01-23 14:38:00,
2013-01-23 06:43:00,42.6,19.4,29.88,SSE,166,2.2,3.1,39,0.00,,,0.00,VWS V13.01,2013-01-23 14:43:00,
2013-01-23 06:48:00,42.6,19.4,29.88,SSE,166,2.7,2.7,39,0.00,,,0.00,VWS V13.01,2013-01-23 14:48:00,
2013-01-23 06:53:00,42.4,19.2,29.88,SSE,166,0.0,3.1,39,0.00,,,0.00,VWS V13.01,2013-01-23 14:53:00,
2013-01-23 06:58:00,42.3,19.1,29.88,SSE,166,0.0,0.0,39,0.00,,,0.00,VWS V13.01,2013-01-23 14:58:00,
2013-01-23 07:03:00,42.1,18.9,29.88,SSE,166,0.0,0.0,39,0.00,,,0.00,VWS V13.01,2013-01-23 15:03:00,
2013-01-23 07:08:00,42.1,18.9,29.88,SSE,166,3.1,3.1,39,0.00,,,0.00,VWS V13.01,2013-01-23 15:08:00,
2013-01-23 07:13:00,42.3,19.1,29.88,SSE,166,2.7,3.6,39,0.00,,,0.00,VWS V13.01,2013-01-23 15:13:00,
2013-01-23 07:18:00,42.1,19.5,29.88,SSE,166,7.2,7.2,40,0.00,,,0.00,VWS V13.01,2013-01-23 15:18:00,
2013-01-23 07:23:00,41.7,19.2,29.88,SSE,166,6.3,7.6,40,0.00,,,0.00,VWS V13.01,2013-01-23 15:23:00,
2013-01-23 07:28:00,41.4,19.5,29.88,SSE,165,5.4,5.8,41,0.00,,,0.00,VWS V13.01,2013-01-23 15:28:00,
2013-01-23 07:33:00,41.0,19.1,29.88,SSE,165,4.0,4.0,41,0.00,,,0.00,VWS V13.01,2013-01-23 15:33:00,
2013-01-23 07:38:00,41.0,19.1,29.88,SSE,166,3.1,3.1,41,0.00,,,0.00,VWS V13.01,2013-01-23 15:38:00,
2013-01-23 07:43:00,41.0,19.1,29.88,SSE,166,2.7,3.6,41,0.00,,,0.00,VWS V13.01,2013-01-23 15:43:00,
2013-01-23 07:48:00,41.2,19.3,29.88,SSE,166,3.1,3.1,41,0.00,,,0.00,VWS V13.01,2013-01-23 15:48:00,
2013-01-23 07:53:00,41.5,19.0,29.88,SSE,166,4.0,5.4,40,0.00,,,0.00,VWS V13.01,2013-01-23 15:53:00,
2013-01-23 07:58:00,41.7,19.2,29.88,SSE,166,4.0,4.0,40,0.00,,,0.00,VWS V13.01,2013-01-23 15:58:00,
2013-01-23 08:03:00,41.9,19.4,29.88,SSE,166,3.1,3.1,40,0.00,,,0.00,VWS V13.01,2013-01-23 16:03:00,
2013-01-23 08:08:00,41.9,19.4,29.88,SSE,166,4.0,5.4,40,0.00,,,0.00,VWS V13.01,2013-01-23 16:08:00,
2013-01-23 08:13:00,41.9,19.4,29.88,SSE,166,0.0,4.0,40,0.00,,,0.00,VWS V13.01,2013-01-23 16:13:00,
2013-01-23 08:18:00,41.7,19.2,29.88,SSE,166,2.2,3.1,40,0.00,,,0.00,VWS V13.01,2013-01-23 16:18:00,
2013-01-23 08:23:00,41.5,19.0,29.88,SSE,166,4.0,4.0,40,0.00,,,0.00,VWS V13.01,2013-01-23 16:23:00,
2013-01-23 08:28:00,41.7,19.2,29.88,SSE,166,4.9,5.8,40,0.00,,,0.00,VWS V13.01,2013-01-23 16:28:00,
2013-01-23 08:33:00,41.7,19.2,29.88,SSE,165,4.0,5.4,40,0.00,,,0.00,VWS V13.01,2013-01-23 16:33:00,
2013-01-23 08:38:00,41.7,19.8,29.88,SSE,165,3.1,5.8,41,0.00,,,0.00,VWS V13.01,2013-01-23 16:38:00,
2013-01-23 08:43:00,41.7,19.8,29.88,SSE,165,4.0,5.8,41,0.00,,,0.00,VWS V13.01,2013-01-23 16:43:00,
2013-01-23 08:48:00,41.7,19.8,29.88,SSE,165,2.7,3.1,41,0.00,,,0.00,VWS V13.01,2013-01-23 16:48:00,
2013-01-23 08:53:00,41.5,20.7,29.88,SSE,165,3.6,4.9,43,0.00,,,0.00,VWS V13.01,2013-01-23 16:53:00,
2013-01-23 08:58:00,41.5,20.7,29.88,SSE,165,3.1,5.4,43,0.00,,,0.00,VWS V13.01,2013-01-23 16:58:00,
2013-01-23 09:03:00,41.5,21.3,29.88,SSE,165,3.1,3.6,44,0.00,,,0.00,VWS V13.01,2013-01-23 17:03:00,
2013-01-23 09:08:00,41.5,21.3,29.91,SSE,165,2.2,2.7,44,0.00,,,0.00,VWS V13.01,2013-01-23 17:08:00,
2013-01-23 09:13:00,41.4,22.1,29.91,SSE,165,4.0,4.0,46,0.00,,,0.00,VWS V13.01,2013-01-23 17:13:00,
2013-01-23 09:18:00,41.4,22.7,29.91,SSE,165,4.0,4.9,47,0.00,,,0.00,VWS V13.01,2013-01-23 17:18:00,
2013-01-23 09:23:00,41.2,23.0,29.91,SSE,165,4.0,5.8,48,0.00,,,0.00,VWS V13.01,2013-01-23 17:23:00,
2013-01-23 09:28:00,41.2,23.0,29.91,SSE,166,3.1,4.0,48,0.00,,,0.00,VWS V13.01,2013-01-23 17:28:00,
2013-01-23 09:33:00,41.2,23.5,29.91,SSE,165,3.1,3.6,49,0.00,,,0.00,VWS V13.01,2013-01-23 17:33:00,
2013-01-23 09:38:00,41.2,23.5,29.91,SSE,165,4.0,4.0,49,0.00,,,0.00,VWS V13.01,2013-01-23 17:38:00,
2013-01-23 09:43:00,41.2,24.0,29.91,SSE,166,2.7,3.6,50,0.00,,,0.00,VWS V13.01,2013-01-23 17:43:00,
2013-01-23 09:48:00,41.0,24.3,29.91,SSE,165,6.3,8.3,51,0.00,,,0.00,VWS V13.01,2013-01-23 17:48:00,
2013-01-23 09:53:00,41.0,24.3,29.91,SSE,165,3.6,3.6,51,0.00,,,0.00,VWS V13.01,2013-01-23 17:53:00,
2013-01-23 09:58:00,40.8,24.1,29.91,ESE,123,6.3,8.3,51,0.00,,,0.00,VWS V13.01,2013-01-23 17:58:00,
2013-01-23 10:03:00,40.8,24.6,29.91,ESE,123,3.1,3.6,52,0.00,,,0.00,VWS V13.01,2013-01-23 18:03:00,
2013-01-23 10:08:00,41.0,24.7,29.91,ESE,123,4.0,4.0,52,0.00,,,0.00,VWS V13.01,2013-01-23 18:08:00,
2013-01-23 10:13:00,41.0,25.2,29.91,ESE,123,2.7,3.6,53,0.00,,,0.00,VWS V13.01,2013-01-23 18:13:00,
2013-01-23 10:18:00,41.2,26.2,29.91,ESE,123,0.0,4.0,55,0.00,,,0.00,VWS V13.01,2013-01-23 18:18:00,
2013-01-23 10:23:00,41.2,26.2,29.91,ESE,123,5.4,6.3,55,0.00,,,0.00,VWS V13.01,2013-01-23 18:23:00,
2013-01-23 10:28:00,41.0,26.1,29.91,ESE,123,3.6,5.8,55,0.00,,,0.00,VWS V13.01,2013-01-23 18:28:00,
2013-01-23 10:33:00,40.6,25.3,29.91,ESE,123,3.1,5.8,54,0.00,,,0.00,VWS V13.01,2013-01-23 18:33:00,
2013-01-23 10:38:00,40.8,26.4,29.91,ESE,123,3.6,7.6,56,0.00,,,0.00,VWS V13.01,2013-01-23 18:38:00,
2013-01-23 10:43:00,40.6,26.6,29.91,SE,138,8.3,8.3,57,0.00,,,0.00,VWS V13.01,2013-01-23 18:43:00,
2013-01-23 10:48:00,40.6,27.0,29.91,SE,137,6.3,8.3,58,0.00,,,0.00,VWS V13.01,2013-01-23 18:48:00,
2013-01-23 10:53:00,40.8,28.0,29.91,SE,137,7.2,7.2,60,0.00,,,0.00,VWS V13.01,2013-01-23 18:53:00,
2013-01-23 10:58:00,40.8,29.6,29.91,SE,137,5.8,5.8,64,0.00,,,0.00,VWS V13.01,2013-01-23 18:58:00,
2013-01-23 11:03:00,41.0,30.5,29.91,SE,137,6.3,6.3,66,0.00,,,0.00,VWS V13.01,2013-01-23 19:03:00,
2013-01-23 11:08:00,41.2,31.4,29.91,SE,137,4.9,5.4,68,0.00,,,0.00,VWS V13.01,2013-01-23 19:08:00,
2013-01-23 11:13:00,41.2,31.8,29.91,SE,137,4.0,5.4,69,0.00,,,0.00,VWS V13.01,2013-01-23 19:13:00,
2013-01-23 11:18:00,41.2,31.8,29.91,SE,137,3.6,5.8,69,0.00,,,0.00,VWS V13.01,2013-01-23 19:18:00,
2013-01-23 11:23:00,41.4,32.3,29.91,SE,137,4.0,4.0,70,0.00,,,0.00,VWS V13.01,2013-01-23 19:23:00,
2013-01-23 11:28:00,41.5,33.2,29.91,SE,137,3.1,3.1,72,0.00,,,0.00,VWS V13.01,2013-01-23 19:28:00,
2013-01-23 11:33:00,41.5,33.5,29.91,SE,137,0.0,0.0,73,0.00,,,0.00,VWS V13.01,2013-01-23 19:33:00,
2013-01-23 11:38:00,41.7,33.7,29.91,SE,137,0.0,2.7,73,0.00,,,0.00,VWS V13.01,2013-01-23 19:38:00,
2013-01-23 11:43:00,41.9,34.2,29.91,SE,137,0.0,0.0,74,0.00,,,0.00,VWS V13.01,2013-01-23 19:43:00,
2013-01-23 11:48:00,41.9,34.2,29.91,SE,137,3.6,3.6,74,0.00,,,0.00,VWS V13.01,2013-01-23 19:48:00,
2013-01-23 11:53:00,42.1,34.7,29.91,SE,137,2.7,3.6,75,0.00,,,0.00,VWS V13.01,2013-01-23 19:53:00,
2013-01-23 11:58:00,42.1,34.7,29.91,SE,137,0.0,2.2,75,0.00,,,0.00,VWS V13.01,2013-01-23 19:58:00,
2013-01-23 12:03:00,42.3,34.9,29.91,SE,137,3.6,3.6,75,0.00,,,0.00,VWS V13.01,2013-01-23 20:03:00,
2013-01-23 12:08:00,42.4,35.1,29.91,SE,137,2.7,2.7,75,0.00,,,0.00,VWS V13.01,2013-01-23 20:08:00,
2013-01-23 12:13:00,42.4,35.4,29.91,SE,137,2.7,3.6,76,0.00,,,0.00,VWS V13.01,2013-01-23 20:13:00,
2013-01-23 12:18:00,42.4,35.4,29.91,SE,137,2.7,2.7,76,0.00,,,0.00,VWS V13.01,2013-01-23 20:18:00,
2013-01-23 12:23:00,42.4,35.4,29.94,SE,137,5.4,5.4,76,0.00,,,0.00,VWS V13.01,2013-01-23 20:23:00,
2013-01-23 12:28:00,42.6,35.6,29.94,SE,137,2.7,4.0,76,0.00,,,0.00,VWS V13.01,2013-01-23 20:28:00,
2013-01-23 12:33:00,42.8,35.8,29.94,SE,137,4.9,5.4,76,0.00,,,0.00,VWS V13.01,2013-01-23 20:33:00,
2013-01-23 12:38:00,43.0,36.0,29.94,SE,137,0.0,0.0,76,0.00,,,0.00,VWS V13.01,2013-01-23 20:38:00,
2013-01-23 12:43:00,43.0,36.0,29.94,SE,137,0.0,0.0,76,0.00,,,0.00,VWS V13.01,2013-01-23 20:43:00,
2013-01-23 12:48:00,43.0,36.0,29.94,SE,137,0.0,0.0,76,0.00,,,0.00,VWS V13.01,2013-01-23 20:48:00,
2013-01-23 12:53:00,43.3,36.3,29.94,SE,137,0.0,0.0,76,0.00,,,0.00,VWS V13.01,2013-01-23 20:53:00,
2013-01-23 12:58:00,43.3,36.3,29.94,SE,137,0.0,0.0,76,0.00,,,0.00,VWS V13.01,2013-01-23 20:58:00,
2013-01-23 13:03:00,43.2,36.1,29.94,SE,137,3.1,3.1,76,0.00,,,0.00,VWS V13.01,2013-01-23 21:03:00,
2013-01-23 13:08:00,43.0,36.0,29.94,SE,137,3.1,3.1,76,0.00,,,0.00,VWS V13.01,2013-01-23 21:08:00,
2013-01-23 13:13:00,43.0,35.6,29.94,SE,137,3.1,3.1,75,0.00,,,0.00,VWS V13.01,2013-01-23 21:13:00,
2013-01-23 13:18:00,42.8,35.4,29.94,SE,137,3.1,3.1,75,0.00,,,0.00,VWS V13.01,2013-01-23 21:18:00,
2013-01-23 13:23:00,43.0,36.0,29.94,SE,137,3.6,3.6,76,0.00,,,0.00,VWS V13.01,2013-01-23 21:23:00,
2013-01-23 13:28:00,43.0,36.0,29.94,SE,137,2.7,3.1,76,0.00,,,0.00,VWS V13.01,2013-01-23 21:28:00,
2013-01-23 13:33:00,43.0,36.0,29.94,SE,137,0.0,3.6,76,0.00,,,0.00,VWS V13.01,2013-01-23 21:33:00,
2013-01-23 13:38:00,43.0,36.0,29.94,SE,137,0.0,4.9,76,0.00,,,0.00,VWS V13.01,2013-01-23 21:38:00,
2013-01-23 13:43:00,43.0,36.0,29.94,SE,137,0.0,0.0,76,0.00,,,0.00,VWS V13.01,2013-01-23 21:43:00,
2013-01-23 13:48:00,43.3,36.6,29.94,SE,137,0.0,0.0,77,0.00,,,0.00,VWS V13.01,2013-01-23 21:48:00,
2013-01-23 13:53:00,43.3,36.6,29.94,SE,137,2.7,2.7,77,0.00,,,0.00,VWS V13.01,2013-01-23 21:53:00,
2013-01-23 13:58:00,43.3,36.6,29.94,SE,137,0.0,0.0,77,0.00,,,0.00,VWS V13.01,2013-01-23 21:58:00,
2013-01-23 14:03:00,43.5,37.1,29.94,SE,137,0.0,2.7,78,0.00,,,0.00,VWS V13.01,2013-01-23 22:03:00,
2013-01-23 14:08:00,43.5,37.1,29.97,SE,137,0.0,0.0,78,0.00,,,0.00,VWS V13.01,2013-01-23 22:08:00,
2013-01-23 14:13:00,43.5,37.1,29.97,SE,137,0.0,0.0,78,0.00,,,0.00,VWS V13.01,2013-01-23 22:13:00,
2013-01-23 14:18:00,43.5,37.1,29.97,SE,137,0.0,0.0,78,0.00,,,0.00,VWS V13.01,2013-01-23 22:18:00,
2013-01-23 14:23:00,43.5,37.1,29.97,SE,137,0.0,0.0,78,0.00,,,0.00,VWS V13.01,2013-01-23 22:23:00,
2013-01-23 14:28:00,43.5,37.5,29.97,SE,137,0.0,0.0,79,0.00,,,0.00,VWS V13.01,2013-01-23 22:28:00,
2013-01-23 14:33:00,43.5,37.5,29.97,SE,137,0.0,0.0,79,0.00,,,0.00,VWS V13.01,2013-01-23 22:33:00,
2013-01-23 14:38:00,43.5,37.5,30.00,SE,137,0.0,0.0,79,0.00,,,0.00,VWS V13.01,2013-01-23 22:38:00,
2013-01-23 14:43:00,43.7,38.0,30.00,SE,137,2.2,3.1,80,0.00,,,0.00,VWS V13.01,2013-01-23 22:43:00,
2013-01-23 14:48:00,43.7,38.0,30.00,SE,137,0.0,0.0,80,0.00,,,0.00,VWS V13.01,2013-01-23 22:48:00,
2013-01-23 14:53:00,43.7,38.0,30.00,SE,137,0.0,0.0,80,0.00,,,0.00,VWS V13.01,2013-01-23 22:53:00,
2013-01-23 14:58:00,43.7,38.0,30.00,SE,137,0.0,0.0,80,0.00,,,0.00,VWS V13.01,2013-01-23 22:58:00,
2013-01-23 15:03:00,43.7,38.0,30.00,SE,137,0.0,0.0,80,0.00,,,0.00,VWS V13.01,2013-01-23 23:03:00,
2013-01-23 15:08:00,43.9,38.4,30.00,SE,137,0.0,0.0,81,0.00,,,0.00,VWS V13.01,2013-01-23 23:08:00,
2013-01-23 15:13:00,43.9,38.1,30.00,SE,137,0.0,0.0,80,0.00,,,0.00,VWS V13.01,2013-01-23 23:13:00,
2013-01-23 15:18:00,44.1,38.6,30.00,SE,137,0.0,0.0,81,0.00,,,0.00,VWS V13.01,2013-01-23 23:18:00,
2013-01-23 15:23:00,44.1,38.6,30.00,SE,137,0.0,0.0,81,0.00,,,0.00,VWS V13.01,2013-01-23 23:23:00,
2013-01-23 15:28:00,44.2,38.8,30.00,SE,137,0.0,0.0,81,0.00,,,0.00,VWS V13.01,2013-01-23 23:28:00,
2013-01-23 15:33:00,44.4,39.0,30.00,SE,137,0.0,0.0,81,0.00,,,0.00,VWS V13.01,2013-01-23 23:33:00,
2013-01-23 15:38:00,44.4,39.0,30.00,SE,137,0.0,0.0,81,0.00,,,0.00,VWS V13.01,2013-01-23 23:38:00,
2013-01-23 15:43:00,44.4,39.0,30.00,SE,137,0.0,0.0,81,0.00,,,0.00,VWS V13.01,2013-01-23 23:43:00,
2013-01-23 15:48:00,44.4,39.0,30.00,SE,137,0.0,0.0,81,0.00,,,0.00,VWS V13.01,2013-01-23 23:48:00,
2013-01-23 15:53:00,44.4,39.0,30.00,SE,137,0.0,0.0,81,0.00,,,0.00,VWS V13.01,2013-01-23 23:53:00,
2013-01-23 15:58:00,44.6,39.1,30.00,SE,137,0.0,0.0,81,0.00,,,0.00,VWS V13.01,2013-01-23 23:58:00,
2013-01-23 16:03:00,44.6,39.1,30.00,SE,137,0.0,0.0,81,0.00,,,0.00,VWS V13.01,2013-01-24 00:03:00,
2013-01-23 16:08:00,44.6,39.1,30.03,SE,137,0.0,0.0,81,0.00,,,0.00,VWS V13.01,2013-01-24 00:08:00,
2013-01-23 16:13:00,44.4,39.0,30.03,SE,137,2.2,2.7,81,0.00,,,0.00,VWS V13.01,2013-01-24 00:13:00,
2013-01-23 16:18:00,44.2,38.8,30.03,SE,137,0.0,0.0,81,0.00,,,0.00,VWS V13.01,2013-01-24 00:18:00,
2013-01-23 16:23:00,44.2,38.8,30.03,SE,137,0.0,0.0,81,0.00,,,0.00,VWS V13.01,2013-01-24 00:23:00,
2013-01-23 16:28:00,44.2,38.8,30.03,SE,137,0.0,0.0,81,0.00,,,0.00,VWS V13.01,2013-01-24 00:28:00,
2013-01-23 16:33:00,44.6,39.1,30.03,SE,137,0.0,0.0,81,0.00,,,0.00,VWS V13.01,2013-01-24 00:33:00,
2013-01-23 16:38:00,44.4,39.0,30.03,SE,137,0.0,2.2,81,0.00,,,0.00,VWS V13.01,2013-01-24 00:38:00,
2013-01-23 16:43:00,44.1,38.3,30.03,SE,137,0.0,0.0,80,0.00,,,0.00,VWS V13.01,2013-01-24 00:43:00,
2013-01-23 16:48:00,43.9,38.1,30.03,SE,137,0.0,0.0,80,0.00,,,0.00,VWS V13.01,2013-01-24 00:48:00,
2013-01-23 16:53:00,43.9,38.1,30.03,SE,137,2.7,3.1,80,0.00,,,0.00,VWS V13.01,2013-01-24 00:53:00,
2013-01-23 16:58:00,43.7,38.3,30.03,SE,137,0.0,0.0,81,0.00,,,0.00,VWS V13.01,2013-01-24 00:58:00,
2013-01-23 17:03:00,43.5,37.8,30.03,SE,137,0.0,3.6,80,0.00,,,0.00,VWS V13.01,2013-01-24 01:03:00,
2013-01-23 17:08:00,43.3,37.6,30.06,SE,137,0.0,3.1,80,0.00,,,0.00,VWS V13.01,2013-01-24 01:08:00,
2013-01-23 17:13:00,43.3,37.6,30.06,SE,137,4.9,4.9,80,0.00,,,0.00,VWS V13.01,2013-01-24 01:13:00,
2013-01-23 17:18:00,43.3,37.6,30.06,SE,137,3.6,3.6,80,0.00,,,0.00,VWS V13.01,2013-01-24 01:18:00,
2013-01-23 17:23:00,43.3,37.9,30.06,SE,137,0.0,3.1,81,0.00,,,0.00,VWS V13.01,2013-01-24 01:23:00,
2013-01-23 17:28:00,43.2,37.4,30.06,SE,137,2.7,5.4,80,0.00,,,0.00,VWS V13.01,2013-01-24 01:28:00,
2013-01-23 17:33:00,43.0,37.2,30.06,SE,137,3.1,3.1,80,0.00,,,0.00,VWS V13.01,2013-01-24 01:33:00,
2013-01-23 17:38:00,42.8,37.1,30.06,SE,137,3.1,3.1,80,0.00,,,0.00,VWS V13.01,2013-01-24 01:38:00,
2013-01-23 17:42:00,42.8,37.1,30.06,SE,137,0.0,0.0,80,0.00,,,0.00,VWS V13.01,2013-01-24 01:42:00,
2013-01-23 17:48:00,42.6,37.2,30.06,SE,137,0.0,0.0,81,0.00,,,0.00,VWS V13.01,2013-01-24 01:48:00,
2013-01-23 17:52:00,42.4,36.7,30.06,SE,137,0.0,0.0,80,0.00,,,0.00,VWS V13.01,2013-01-24 01:52:00,
2013-01-23 17:57:00,42.4,37.0,30.06,SE,137,0.0,0.0,81,0.00,,,0.00,VWS V13.01,2013-01-24 01:57:00,
2013-01-23 18:02:00,42.3,36.9,30.06,SE,137,0.0,0.0,81,0.00,,,0.00,VWS V13.01,2013-01-24 02:02:00,
2013-01-23 18:07:00,42.3,36.9,30.09,SE,137,0.0,0.0,81,0.00,,,0.00,VWS V13.01,2013-01-24 02:07:00,
2013-01-23 18:12:00,42.3,36.9,30.09,SE,137,2.2,3.6,81,0.00,,,0.00,VWS V13.01,2013-01-24 02:12:00,
2013-01-23 18:17:00,42.1,36.7,30.09,SE,137,0.0,2.7,81,0.00,,,0.00,VWS V13.01,2013-01-24 02:17:00,
2013-01-23 18:22:00,42.1,36.7,30.09,SE,137,0.0,2.2,81,0.00,,,0.00,VWS V13.01,2013-01-24 02:22:00,
2013-01-23 18:27:00,41.9,36.5,30.09,SE,137,0.0,0.0,81,0.00,,,0.00,VWS V13.01,2013-01-24 02:27:00,
2013-01-23 18:32:00,41.9,36.5,30.09,SE,137,0.0,0.0,81,0.00,,,0.00,VWS V13.01,2013-01-24 02:32:00,
2013-01-23 18:37:00,41.7,36.3,30.09,SE,137,0.0,0.0,81,0.00,,,0.00,VWS V13.01,2013-01-24 02:37:00,
2013-01-23 18:42:00,41.7,36.3,30.09,SE,137,0.0,0.0,81,0.00,,,0.00,VWS V13.01,2013-01-24 02:42:00,
2013-01-23 18:47:00,41.5,36.2,30.09,SE,137,4.0,4.0,81,0.00,,,0.00,VWS V13.01,2013-01-24 02:47:00,
2013-01-23 18:52:00,41.5,36.2,30.09,SE,137,2.2,2.2,81,0.00,,,0.00,VWS V13.01,2013-01-24 02:52:00,
2013-01-23 18:57:00,41.5,36.2,30.09,SE,137,0.0,0.0,81,0.00,,,0.00,VWS V13.01,2013-01-24 02:57:00,
2013-01-23 19:02:00,41.4,36.0,30.09,SE,137,0.0,2.2,81,0.00,,,0.00,VWS V13.01,2013-01-24 03:02:00,
2013-01-23 19:07:00,41.0,35.6,30.12,SE,137,0.0,0.0,81,0.00,,,0.00,VWS V13.01,2013-01-24 03:07:00,
2013-01-23 19:12:00,40.8,35.5,30.12,SE,137,0.0,0.0,81,0.00,,,0.00,VWS V13.01,2013-01-24 03:12:00,
2013-01-23 19:17:00,40.5,35.1,30.12,SE,137,0.0,0.0,81,0.00,,,0.00,VWS V13.01,2013-01-24 03:17:00,
2013-01-23 19:22:00,40.3,34.9,30.12,SE,137,3.1,3.6,81,0.00,,,0.00,VWS V13.01,2013-01-24 03:22:00,
2013-01-23 19:27:00,40.3,34.9,30.12,SE,137,0.0,0.0,81,0.00,,,0.00,VWS V13.01,2013-01-24 03:27:00,
2013-01-23 19:32:00,40.1,34.8,30.12,SE,137,0.0,0.0,81,0.00,,,0.00,VWS V13.01,2013-01-24 03:32:00,
2013-01-23 19:37:00,39.9,34.6,30.12,SE,137,0.0,0.0,81,0.00,,,0.00,VWS V13.01,2013-01-24 03:37:00,
2013-01-23 19:42:00,39.7,34.4,30.12,SE,137,0.0,0.0,81,0.00,,,0.00,VWS V13.01,2013-01-24 03:42:00,
2013-01-23 19:47:00,39.4,34.0,30.12,SE,137,0.0,0.0,81,0.00,,,0.00,VWS V13.01,2013-01-24 03:47:00,
2013-01-23 19:52:00,39.2,33.9,30.15,SE,137,0.0,0.0,81,0.00,,,0.00,VWS V13.01,2013-01-24 03:52:00,
2013-01-23 19:57:00,38.8,33.5,30.15,SE,137,0.0,0.0,81,0.00,,,0.00,VWS V13.01,2013-01-24 03:57:00,
2013-01-23 20:02:00,38.7,33.3,30.15,SE,137,0.0,0.0,81,0.00,,,0.00,VWS V13.01,2013-01-24 04:02:00,
2013-01-23 20:07:00,38.7,33.3,30.15,SE,137,0.0,0.0,81,0.00,,,0.00,VWS V13.01,2013-01-24 04:07:00,
2013-01-23 20:12:00,38.5,33.2,30.15,SE,137,0.0,0.0,81,0.00,,,0.00,VWS V13.01,2013-01-24 04:12:00,
2013-01-23 20:17:00,38.5,33.2,30.15,SE,137,0.0,0.0,81,0.00,,,0.00,VWS V13.01,2013-01-24 04:17:00,
2013-01-23 20:22:00,38.3,33.0,30.15,SE,137,0.0,0.0,81,0.00,,,0.00,VWS V13.01,2013-01-24 04:22:00,
2013-01-23 20:27:00,38.5,33.5,30.15,SE,137,0.0,0.0,82,0.00,,,0.00,VWS V13.01,2013-01-24 04:27:00,
2013-01-23 20:32:00,38.5,33.5,30.15,SE,137,0.0,0.0,82,0.00,,,0.00,VWS V13.01,2013-01-24 04:32:00,
2013-01-23 20:37:00,38.7,34.0,30.15,SE,137,2.2,2.2,83,0.00,,,0.00,VWS V13.01,2013-01-24 04:37:00,
2013-01-23 20:42:00,39.2,34.8,30.15,SE,137,0.0,0.0,84,0.00,,,0.00,VWS V13.01,2013-01-24 04:42:00,
2013-01-23 20:47:00,39.4,35.0,30.15,SE,137,2.2,2.2,84,0.00,,,0.00,VWS V13.01,2013-01-24 04:47:00,
2013-01-23 20:52:00,39.4,35.0,30.15,SE,137,0.0,0.0,84,0.00,,,0.00,VWS V13.01,2013-01-24 04:52:00,
2013-01-23 20:57:00,39.2,34.8,30.15,SE,137,0.0,0.0,84,0.00,,,0.00,VWS V13.01,2013-01-24 04:57:00,
2013-01-23 21:00:00,39.4,35.0,30.15,SE,137,2.7,2.7,84,0.00,,,0.00,VWS V13.01,2013-01-24 05:00:00,
2013-01-23 21:03:00,39.4,35.2,30.15,SE,137,0.0,2.7,85,0.00,,,0.00,VWS V13.01,2013-01-24 05:03:00,
2013-01-23 21:08:00,39.6,35.7,30.15,SE,137,3.6,3.6,86,0.00,,,0.00,VWS V13.01,2013-01-24 05:08:00,
2013-01-23 21:13:00,39.6,36.0,30.15,SE,137,0.0,0.0,87,0.00,,,0.00,VWS V13.01,2013-01-24 05:13:00,
2013-01-23 21:18:00,39.4,35.8,30.15,SE,137,0.0,0.0,87,0.00,,,0.00,VWS V13.01,2013-01-24 05:18:00,
2013-01-23 21:23:00,39.6,36.3,30.15,SE,137,2.7,3.1,88,0.00,,,0.00,VWS V13.01,2013-01-24 05:23:00,
2013-01-23 21:28:00,39.4,36.4,30.15,SE,137,0.0,0.0,89,0.00,,,0.00,VWS V13.01,2013-01-24 05:28:00,
2013-01-23 21:33:00,39.4,36.4,30.15,SE,137,0.0,0.0,89,0.00,,,0.00,VWS V13.01,2013-01-24 05:33:00,
2013-01-23 21:38:00,39.4,36.4,30.18,SE,137,0.0,0.0,89,0.00,,,0.00,VWS V13.01,2013-01-24 05:38:00,
2013-01-23 21:43:00,39.4,36.7,30.18,SE,137,0.0,0.0,90,0.00,,,0.00,VWS V13.01,2013-01-24 05:43:00,
2013-01-23 21:48:00,39.2,36.5,30.18,SE,137,0.0,0.0,90,0.00,,,0.00,VWS V13.01,2013-01-24 05:48:00,
2013-01-23 21:53:00,39.2,36.5,30.18,SE,137,0.0,0.0,90,0.00,,,0.00,VWS V13.01,2013-01-24 05:53:00,
2013-01-23 21:58:00,39.0,36.6,30.18,SE,137,0.0,0.0,91,0.00,,,0.00,VWS V13.01,2013-01-24 05:58:00,
2013-01-23 22:03:00,39.0,36.6,30.18,SE,137,0.0,0.0,91,0.00,,,0.00,VWS V13.01,2013-01-24 06:03:00,
2013-01-23 22:08:00,38.8,36.7,30.18,SE,137,0.0,0.0,92,0.00,,,0.00,VWS V13.01,2013-01-24 06:08:00,
2013-01-23 22:13:00,38.7,36.5,30.18,SE,137,0.0,0.0,92,0.00,,,0.00,VWS V13.01,2013-01-24 06:13:00,
2013-01-23 22:18:00,38.8,37.0,30.18,SE,137,2.2,2.2,93,0.00,,,0.00,VWS V13.01,2013-01-24 06:18:00,
2013-01-23 22:23:00,38.8,37.0,30.18,SE,137,0.0,0.0,93,0.00,,,0.00,VWS V13.01,2013-01-24 06:23:00,
2013-01-23 22:28:00,38.8,37.3,30.18,SE,137,0.0,0.0,94,0.00,,,0.00,VWS V13.01,2013-01-24 06:28:00,
2013-01-23 22:33:00,38.7,37.1,30.18,SE,137,0.0,0.0,94,0.00,,,0.00,VWS V13.01,2013-01-24 06:33:00,
2013-01-23 22:38:00,38.7,37.3,30.18,SE,137,2.7,4.9,95,0.00,,,0.00,VWS V13.01,2013-01-24 06:38:00,
2013-01-23 22:43:00,38.7,37.3,30.18,SE,137,0.0,2.7,95,0.00,,,0.00,VWS V13.01,2013-01-24 06:43:00,
2013-01-23 22:48:00,38.7,37.6,30.18,SE,137,0.0,0.0,96,0.00,,,0.00,VWS V13.01,2013-01-24 06:48:00,
2013-01-23 22:53:00,38.7,37.9,30.18,SE,137,2.2,2.7,97,0.00,,,0.00,VWS V13.01,2013-01-24 06:53:00,
2013-01-23 22:58:00,38.7,37.9,30.18,SE,137,0.0,0.0,97,0.00,,,0.00,VWS V13.01,2013-01-24 06:58:00,
2013-01-23 23:03:00,38.7,38.2,30.18,SE,137,2.7,2.7,98,0.00,,,0.00,VWS V13.01,2013-01-24 07:03:00,
2013-01-23 23:08:00,38.5,38.0,30.18,SE,137,5.8,5.8,98,0.00,,,0.00,VWS V13.01,2013-01-24 07:08:00,
2013-01-23 23:13:00,38.5,38.0,30.18,SE,137,0.0,0.0,98,0.00,,,0.00,VWS V13.01,2013-01-24 07:13:00,
2013-01-23 23:18:00,38.5,38.0,30.18,SE,137,0.0,2.2,98,0.00,,,0.00,VWS V13.01,2013-01-24 07:18:00,
2013-01-23 23:23:00,38.5,38.0,30.21,SE,137,2.2,2.7,98,0.00,,,0.00,VWS V13.01,2013-01-24 07:23:00,
2013-01-23 23:28:00,38.5,38.0,30.21,SE,137,0.0,0.0,98,0.00,,,0.00,VWS V13.01,2013-01-24 07:28:00,
2013-01-23 23:33:00,38.3,37.8,30.21,SE,137,2.2,3.1,98,0.00,,,0.00,VWS V13.01,2013-01-24 07:33:00,
2013-01-23 23:38:00,38.3,37.8,30.21,SE,137,4.9,4.9,98,0.00,,,0.00,VWS V13.01,2013-01-24 07:38:00,
2013-01-23 23:43:00,38.1,37.6,30.21,SE,137,2.7,2.7,98,0.00,,,0.00,VWS V13.01,2013-01-24 07:43:00,
2013-01-23 23:48:00,38.1,37.6,30.21,SE,137,0.0,2.7,98,0.00,,,0.00,VWS V13.01,2013-01-24 07:48:00,
2013-01-23 23:53:00,37.9,37.4,30.21,SE,137,3.1,3.1,98,0.00,,,0.00,VWS V13.01,2013-01-24 07:53:00,
2013-01-23 23:58:00,37.9,37.4,30.21,SE,137,0.0,4.0,98,0.00,,,0.00,VWS V13.01,2013-01-24 07:58:00,